Vertical_Velocity
10 -5 19 -8 8 3 2 4 2 3 2 1 -0 -0 -0 -1 -1 -2 -2 0 1 -1
-2 8 -10 7 22 5 -2 5 2 3 3 1 -0 0 -2 -5 -2 -3 -1 -1 -2 -2
-12 -10 -10 5 26 22 -4 -0 -2 6 4 1 1 1 -2 -3 -0 -3 -0 -1 -3 -1
-2 -5 -27 -39 2 19 29 -4 -1 3 4 5 0 -3 -4 -2 -1 -4 1 -2 -1 1
1 -0 4 -9 -8 15 9 3 -1 1 -6 13 3 4 -4 -3 -1 -5 -2 2 -4 2
-5 -2 -10 4 -5 -2 -1 4 -3 -2 -1 11 -4 3 2 -4 -1 -3 -4 -1 -7 1
-2 -10 2 -7 0 -5 0 9 8 2 -7 9 -4 -3 2 -4 -3 -4 -7 -3 -4 -3
-3 -8 0 1 11 2 10 -10 23 -2 -5 7 -5 -2 -5 -3 -1 -4 -4 -3 -2 -5
-4 -8 1 -8 7 7 -14 10 18 11 5 -2 0 -0 2 -3 -4 -2 -4 -3 6 -7
-2 -3 2 -3 3 7 -11 -8 13 2 -2 1 1 -1 1 -6 -5 -4 -2 0 -0 2
-4 -3 2 -1 5 5 -3 -3 9 0 0 -1 -1 -0 -5 3 -4 -5 -1 2 1 -2
-1 -3 6 -1 2 3 -2 -10 8 6 -5 5 -2 -2 2 -4 -4 -4 3 3 1 -2
-3 0 0 2 3 9 6 12 1 4 5 0 -2 -1 -7 -1 4 -1 -0 1 -3 1
-2 2 -2 -0 6 4 -3 -3 -2 2 -1 2 -4 -3 1 3 -0 -1 -2 -1 2 -1
Height
3029 3030 3029 3030 3031 3033 3033 3035 3038 3041 3043 3046 3049 3051 3054 3057 3060 3061 3063 3064 3065 3067
3016 3014 3017 3019 3018 3019 3021 3023 3026 3029 3032 3036 3039 3042 3045 3047 3050 3052 3053 3055 3056 3057
2997 2997 3000 2999 3002 3004 3008 3010 3012 3017 3021 3025 3028 3032 3035 3037 3040 3041 3043 3045 3047 3048
2983 2979 2982 2982 2983 2981 2985 2995 2999 3003 3008 3014 3018 3021 3024 3027 3029 3031 3032 3034 3036 3037
2972 2970 2965 2964 2968 2965 2973 2980 2987 2988 2995 3002 3008 3011 3013 3016 3019 3020 3022 3024 3025 3026
2959 2955 2955 2953 2956 2960 2960 2966 2972 2976 2983 2990 2996 3000 3002 3005 3008 3009 3012 3013 3014 3014
2947 2945 2941 2940 2941 2947 2950 2951 2957 2965 2972 2977 2983 2988 2991 2994 2996 2997 2999 3000 3001 3003
2934 2932 2930 2929 2926 2931 2938 2942 2944 2952 2963 2965 2970 2977 2979 2982 2984 2984 2985 2987 2988 2990
2921 2920 2918 2917 2916 2921 2928 2933 2931 2941 2950 2955 2959 2964 2967 2970 2971 2971 2971 2971 2975 2976
2910 2908 2907 2906 2906 2910 2919 2921 2923 2933 2940 2943 2947 2951 2955 2957 2957 2957 2958 2960 2961 2963
2898 2897 2896 2896 2896 2901 2907 2911 2915 2924 2929 2933 2936 2939 2942 2945 2943 2944 2946 2948 2948 2950
2888 2887 2886 2887 2889 2893 2896 2902 2908 2913 2918 2920 2925 2929 2931 2930 2932 2933 2934 2935 2935 2936
2880 2878 2878 2879 2881 2885 2888 2893 2898 2905 2907 2912 2916 2918 2920 2921 2922 2923 2924 2923 2923 2923
2872 2872 2872 2871 2873 2876 2880 2887 2892 2896 2900 2903 2905 2908 2911 2913 2913 2914 2912 2912 2913 2914